[[{"header":{"parameterUnit":"m.s-1","parameterCategory":1,"la1":30.2991,"la2":30.254,"lo1":-89.0895,"lo2":-89.0444,"dx":0.0017,"dy":0.0017,"nx":28,"ny":28,"refTime":"2022-12-12T03:00:00:Z","depth":0,"parameterNumber":2,"parameterNumberName":"U-component_of_WINDS"},"data":[0,0,0,0,0,0,0,0,0,0,0,0,0,0,0,0,0,0,0,0,0,0,0,0,0,0,0,0,0,0,0,0,0,0,0,0,0,0,0,0,0,0,0,0,0,0,0,0,0,0,0,0,0,0,0,0,0,0,-2.5425,-2.5426,0,-2.5506,-2.5507,-2.5508,-2.5535,-2.5535,-2.5534,-2.5534,-2.5612,-2.5615,-2.5617,0,0,0,0,0,0,0,0,0,0,0,0,0,-2.5289,-2.5291,-2.5425,-2.5426,-2.5427,-2.5506,-2.5507,-2.5509,-2.5535,-2.5535,-2.5534,-2.5534,-2.5612,-2.5614,-2.5617,0,0,0,0,0,0,0,0,0,0,0,0,0,-2.5357,-2.5292,-2.5425,-2.545,-2.5453,-2.5506,-2.5507,-2.5509,-2.5535,-2.5535,-2.5534,-2.5534,-2.5611,-2.5614,-2.5618,-2.565,0,0,-2.5629,-2.563,0,0,0,0,0,0,0,0,-2.5353,-2.5362,-2.5445,-2.5448,-2.5452,-2.551,-2.5488,-2.5556,-2.5535,-2.5504,-2.5534,-2.5533,-2.5578,-2.5585,-2.5601,-2.5654,-2.5657,-2.5629,-2.5631,-2.5633,-2.5634,0,0,0,0,0,0,0,-2.5348,-2.5358,-2.5457,-2.5447,-2.5451,-2.5456,-2.5465,-2.5501,-2.5543,-2.5506,-2.5509,-2.5518,-2.558,-2.5597,-2.5603,-2.5658,-2.5629,-2.5632,-2.5634,-2.5636,-2.5742,-2.5742,0,0,0,0,0,0,-2.534,-2.5354,-2.5455,-2.546,-2.54,-2.5459,-2.5469,-2.5492,-2.5543,-2.555,-2.5519,-2.5519,-2.5591,-2.5599,-2.5606,-2.5647,-2.5633,-2.5636,-2.5638,-2.5741,-2.5742,-2.5743,0,0,0,0,0,0,-2.5337,-2.5349,-2.5451,-2.5408,-2.5421,-2.5462,-2.5487,-2.5494,-2.5511,-2.5552,-2.5559,-2.5529,-2.5591,-2.5601,-2.5639,-2.565,-2.5638,-2.5641,-2.574,-2.5741,-2.5742,-2.573,0,0,0,0,0,0,-2.5333,-2.5347,-2.5361,-2.5408,-2.5423,-2.5485,-2.5488,-2.5496,-2.5518,-2.5519,-2.5563,-2.557,-2.5592,-2.5634,-2.5643,-2.5655,-2.5644,-2.574,-2.5741,-2.5742,-2.5729,-2.573,-2.5731,0,0,0,0,0,-2.5328,-2.5353,-2.5361,-2.5373,-2.5442,-2.5485,-2.5494,-2.552,-2.5519,-2.5532,-2.5558,-2.5568,-2.5648,-2.5637,-2.5648,-2.5661,-2.5739,-2.574,-2.5742,-2.5729,-2.573,-2.5731,0,0,0,0,0,0,-2.5304,-2.536,-2.537,-2.5411,-2.5443,-2.549,-2.5507,-2.552,-2.5552,-2.5552,-2.5582,-2.5591,-2.5627,-2.5648,-2.5636,-2.5695,-2.5694,-2.5697,-2.568,-2.5682,-2.5682,-2.5676,-2.5647,0,0,0,0,0,-2.5305,-2.5337,-2.5383,-2.5415,-2.5431,-2.5466,-2.5486,-2.5504,-2.5538,-2.5551,-2.558,-2.5611,-2.5643,-2.5664,-2.5695,-2.5733,-2.5742,-2.5747,-2.5748,-2.5748,-2.5751,-2.5772,-2.5774,-2.5748,-2.5748,-2.5747,0,0,-2.5304,-2.5338,-2.5356,-2.5411,-2.5438,-2.547,-2.5477,-2.551,-2.5534,-2.5555,-2.5594,-2.5616,-2.5653,-2.5692,-2.571,-2.571,-2.576,-2.575,-2.575,-2.5752,-2.5773,-2.5776,-2.5778,-2.5749,-2.5748,-2.5748,0,0,-2.532,-2.5349,-2.5379,-2.5407,-2.5448,-2.5472,-2.5479,-2.5524,-2.554,-2.558,-2.5597,-2.5624,-2.5679,-2.5705,-2.5725,-2.5751,-2.5762,-2.5761,-2.5764,-2.5784,-2.5786,-2.5788,-2.5797,-2.58,-2.5763,-2.5763,-2.5763,0,-2.5313,-2.5363,-2.5392,-2.5425,-2.5448,-2.5471,-2.5501,-2.5526,-2.5575,-2.559,-2.559,-2.566,-2.5686,-2.5731,-2.5737,-2.5753,-2.5761,-2.5755,-2.5784,-2.5786,-2.5789,-2.5797,-2.5801,-2.5763,-2.5763,-2.5763,-2.5763,0,-2.5353,-2.5387,-2.5406,-2.5455,-2.548,-2.5511,-2.5544,-2.5566,-2.5581,-2.5605,-2.5644,-2.5677,-2.5716,-2.5728,-2.5743,-2.5775,-2.5774,-2.5779,-2.5778,-2.579,-2.5799,-2.5803,-2.5762,-2.5762,-2.5762,-2.5763,0,0,-2.5355,-2.5421,-2.5427,-2.545,-2.5498,-2.5524,-2.5556,-2.5596,-2.5614,-2.5647,-2.5674,-2.572,-2.5725,-2.5748,-2.5766,-2.5784,-2.5802,-2.5786,-2.5788,-2.5788,-2.5839,-2.5834,-2.5837,-2.581,-2.581,-2.5811,-2.5835,0,-2.5376,-2.5436,-2.5463,-2.551,-2.5541,-2.5564,-2.5592,-2.5624,-2.5646,-2.5675,-2.57,-2.5732,-2.5737,-2.5751,-2.577,-2.5796,-2.5812,-2.5794,-2.5833,-2.5834,-2.5823,-2.5842,-2.5837,-2.5859,-2.5839,-2.5839,-2.584,0,-2.5409,-2.5444,-2.5494,-2.5539,-2.5553,-2.5578,-2.5616,-2.5644,-2.5681,-2.5696,-2.5722,-2.574,-2.5773,-2.577,-2.5816,-2.5803,-2.5821,-2.5836,-2.5837,-2.5841,-2.5837,-2.5846,-2.5866,-2.5869,-2.5846,-2.5845,-2.5845,0,-2.5404,-2.5464,-2.5502,-2.5521,-2.5574,-2.5591,-2.5613,-2.565,-2.5672,-2.5705,-2.572,-2.5756,-2.5776,-2.5803,-2.5829,-2.5825,-2.5872,-2.5872,-2.5884,-2.5884,-2.5892,-2.5891,-2.5915,-2.5905,-2.5905,-2.5905,-2.5905,0,-2.5425,-2.5454,-2.5501,-2.5524,-2.5557,-2.5589,-2.5621,-2.5645,-2.5677,-2.5704,-2.5726,-2.5751,-2.5785,-2.5813,-2.5834,-2.5868,-2.5877,-2.589,-2.5895,-2.5887,-2.5886,-2.5898,-2.5897,-2.5906,-2.5906,-2.5905,-2.5905,0,-2.5425,-2.5458,-2.55,-2.5548,-2.5561,-2.5583,-2.5624,-2.5646,-2.5671,-2.5705,-2.5715,-2.5752,-2.5788,-2.5817,-2.5863,-2.5877,-2.5912,-2.5918,-2.59,-2.5903,-2.5914,-2.5912,-2.5946,-2.5952,-2.5938,-2.5938,-2.5938,0,-2.5436,-2.5459,-2.551,-2.5531,-2.5554,-2.5587,-2.561,-2.5641,-2.5665,-2.5708,-2.5725,-2.5763,-2.5794,-2.5849,-2.5879,-2.5914,-2.5921,-2.5931,-2.5926,-2.5918,-2.5921,-2.5919,-2.5921,-2.593,-2.593,-2.5931,-2.5931,0,-2.5451,-2.5466,-2.55,-2.5539,-2.5567,-2.5599,-2.5631,-2.5646,-2.5684,-2.5708,-2.5746,-2.577,-2.5818,-2.5854,-2.5892,-2.5914,-2.5928,-2.5932,-2.5937,-2.5929,-2.5917,-2.5923,-2.59,-2.5931,-2.5931,-2.5931,-2.5931,-2.5931,-2.5456,-2.5478,-2.5518,-2.5554,-2.5583,-2.5613,-2.5637,-2.5665,-2.5697,-2.5739,-2.5755,-2.5793,-2.5829,-2.5882,-2.5905,-2.5934,-2.5936,-2.5942,-2.5944,-2.5945,-2.5944,-2.5914,-2.5941,-2.5941,-2.5941,-2.5941,-2.5941,0,-2.5472,-2.5499,-2.5532,-2.5578,-2.5607,-2.5619,-2.5656,-2.5679,-2.5712,-2.5745,-2.5776,-2.5819,-2.5854,-2.5888,-2.5925,-2.5942,-2.5949,-2.595,-2.5949,-2.5954,-2.594,-2.5932,-2.5944,-2.5944,-2.5944,-2.5944,-2.5944,-2.5944,-2.5483,-2.5521,-2.5541,-2.5593,-2.562,-2.5658,-2.5678,-2.5705,-2.5732,-2.5779,-2.5809,-2.5832,-2.5865,-2.5905,-2.5937,-2.5946,-2.5959,-2.5958,-2.5968,-2.5955,-2.5954,-2.5954,-2.5946,-2.5961,-2.5961,-2.5979,-2.5979,-2.5979]},{"header":{"parameterUnit":"m.s-1","parameterCategory":1,"la1":30.2991,"la2":30.254,"lo1":-89.0895,"lo2":-89.0444,"dx":0.0017,"dy":0.0017,"nx":28,"ny":28,"refTime":"2022-12-12T03:00:00:Z","depth":0,"parameterNumber":3,"parameterNumberName":"V-component_of_WINDS"},"data":[0,0,0,0,0,0,0,0,0,0,0,0,0,0,0,0,0,0,0,0,0,0,0,0,0,0,0,0,0,0,0,0,0,0,0,0,0,0,0,0,0,0,0,0,0,0,0,0,0,0,0,0,0,0,0,0,0,0,2.9476,2.9476,0,2.95,2.95,2.9501,2.952,2.952,2.952,2.952,2.9543,2.9544,2.9544,0,0,0,0,0,0,0,0,0,0,0,0,0,2.9445,2.9445,2.9476,2.9476,2.9477,2.95,2.95,2.9501,2.952,2.952,2.952,2.952,2.9543,2.9544,2.9544,0,0,0,0,0,0,0,0,0,0,0,0,0,2.9462,2.9445,2.9476,2.9489,2.949,2.95,2.95,2.9501,2.952,2.952,2.952,2.952,2.9543,2.9544,2.9544,2.9542,0,0,2.9546,2.9547,0,0,0,0,0,0,0,0,2.9461,2.9463,2.9487,2.9488,2.949,2.9507,2.9498,2.9515,2.9519,2.9508,2.952,2.9521,2.9531,2.9533,2.9536,2.9544,2.9545,2.9546,2.9547,2.9547,2.9547,0,0,0,0,0,0,0,2.946,2.9463,2.9485,2.9487,2.9489,2.9493,2.9496,2.9501,2.9518,2.9509,2.9511,2.9514,2.9532,2.9536,2.9537,2.9545,2.9546,2.9547,2.9547,2.9548,2.9551,2.955,0,0,0,0,0,0,2.9457,2.9461,2.9485,2.9486,2.9476,2.9493,2.9496,2.9501,2.9518,2.9521,2.9513,2.9514,2.9535,2.9536,2.9538,2.9536,2.9547,2.9548,2.9548,2.9551,2.9551,2.955,0,0,0,0,0,0,2.9456,2.9459,2.9484,2.9474,2.9478,2.9493,2.9499,2.9502,2.9506,2.9521,2.9524,2.9514,2.9535,2.9537,2.9541,2.9537,2.9548,2.9549,2.9551,2.9551,2.955,2.9533,0,0,0,0,0,0,2.9455,2.9459,2.9459,2.9474,2.9478,2.9487,2.9499,2.9502,2.9507,2.9508,2.9522,2.9525,2.9535,2.954,2.9542,2.9539,2.9549,2.9552,2.9551,2.9551,2.9534,2.9532,2.9531,0,0,0,0,0,2.9454,2.9453,2.9459,2.9461,2.9479,2.9487,2.9489,2.9501,2.9506,2.9506,2.9516,2.9525,2.9538,2.954,2.9542,2.9539,2.9552,2.9551,2.9551,2.9535,2.9533,2.9531,0,0,0,0,0,0,2.9436,2.9455,2.9462,2.9465,2.9474,2.949,2.949,2.9498,2.9506,2.9507,2.9521,2.9524,2.9526,2.9533,2.9536,2.9538,2.9546,2.9546,2.9533,2.9531,2.9529,2.9528,2.955,0,0,0,0,0,2.9433,2.9438,2.9454,2.9456,2.946,2.9474,2.9478,2.9487,2.9497,2.95,2.951,2.9519,2.9525,2.9528,2.9535,2.9535,2.9538,2.9534,2.9532,2.9531,2.953,2.953,2.9528,2.9548,2.9548,2.9548,0,0,2.9426,2.9437,2.9439,2.9453,2.9461,2.9465,2.9477,2.9482,2.9486,2.9501,2.9505,2.9513,2.9523,2.9525,2.9527,2.9531,2.9525,2.953,2.9529,2.9529,2.9529,2.9527,2.9526,2.9547,2.9548,2.9548,0,0,2.9415,2.9424,2.9426,2.9434,2.9446,2.9455,2.9455,2.947,2.9475,2.948,2.9491,2.9495,2.9505,2.9512,2.9517,2.9507,2.9516,2.9509,2.95,2.9499,2.9498,2.9496,2.9492,2.9491,2.9509,2.9509,2.9508,0,2.9404,2.9413,2.9426,2.943,2.9435,2.9449,2.9451,2.9457,2.9471,2.9473,2.9478,2.9491,2.9499,2.9502,2.95,2.9504,2.9504,2.9508,2.9497,2.9496,2.9495,2.9491,2.9489,2.9508,2.9508,2.9508,2.9508,0,2.9399,2.9404,2.9404,2.9417,2.9422,2.9425,2.9438,2.9441,2.9449,2.9457,2.9461,2.9471,2.948,2.9481,2.9489,2.9485,2.9487,2.9494,2.9503,2.9492,2.9488,2.9487,2.9506,2.9507,2.9507,2.9507,0,0,2.9378,2.9397,2.9397,2.9403,2.9416,2.942,2.9423,2.9431,2.9434,2.9442,2.9444,2.9452,2.9458,2.9464,2.9472,2.9472,2.9463,2.9479,2.9479,2.9475,2.9459,2.9453,2.9451,2.9468,2.9468,2.9468,2.9458,0,2.937,2.9376,2.9387,2.939,2.9394,2.9407,2.941,2.9418,2.9426,2.943,2.9438,2.9443,2.9452,2.9455,2.9455,2.9464,2.946,2.9465,2.947,2.947,2.9467,2.945,2.9444,2.9433,2.9456,2.9456,2.9456,0,2.936,2.9368,2.9371,2.9383,2.9385,2.9387,2.9395,2.94,2.9409,2.9414,2.942,2.9429,2.9432,2.9439,2.9443,2.9446,2.9449,2.9453,2.9453,2.9454,2.9462,2.9449,2.9431,2.9429,2.9454,2.9454,2.9455,0,2.9344,2.9355,2.9358,2.9362,2.9377,2.9378,2.9384,2.9393,2.9397,2.9404,2.9406,2.9413,2.9417,2.9422,2.9432,2.9437,2.9434,2.9443,2.9438,2.9438,2.9437,2.9437,2.9418,2.9439,2.9439,2.9439,2.9439,0,2.9333,2.9334,2.9351,2.9353,2.9354,2.9366,2.9367,2.9374,2.9382,2.9385,2.9397,2.9399,2.9413,2.9416,2.9424,2.9425,2.9427,2.9431,2.9433,2.943,2.9429,2.9432,2.9432,2.9439,2.9439,2.9439,2.9439,0,2.9316,2.9327,2.9331,2.9344,2.9347,2.9348,2.9359,2.936,2.9368,2.9371,2.9373,2.9385,2.939,2.9401,2.9409,2.9414,2.9413,2.9417,2.941,2.9411,2.9405,2.9405,2.9387,2.9385,2.9408,2.9408,2.9407,0,2.9308,2.9309,2.9322,2.9325,2.933,2.9335,2.9339,2.9351,2.9354,2.9364,2.9364,2.937,2.9375,2.9381,2.9391,2.9396,2.94,2.9393,2.9401,2.9398,2.9399,2.9399,2.9399,2.9392,2.9391,2.9391,2.9391,0,2.9293,2.9298,2.9303,2.931,2.9314,2.932,2.9327,2.9328,2.9341,2.9345,2.9349,2.9353,2.9361,2.9366,2.9373,2.9378,2.9386,2.9388,2.9387,2.9384,2.9379,2.9381,2.9404,2.9389,2.9389,2.9389,2.9389,2.9389,2.9279,2.9281,2.929,2.9295,2.9301,2.9306,2.9308,2.9316,2.9321,2.9328,2.9334,2.9338,2.9346,2.9356,2.9361,2.9364,2.9368,2.9367,2.9367,2.9366,2.9364,2.9379,2.9365,2.9365,2.9365,2.9365,2.9365,0,2.9264,2.927,2.9275,2.9283,2.9287,2.9295,2.9302,2.9304,2.9308,2.9314,2.9319,2.9324,2.9329,2.9338,2.9343,2.9344,2.9347,2.9344,2.9344,2.9345,2.936,2.936,2.9341,2.9341,2.9341,2.9341,2.9341,2.9341,2.9257,2.9259,2.9265,2.9269,2.9275,2.9279,2.9283,2.9287,2.9293,2.9298,2.9302,2.9308,2.9315,2.9321,2.9325,2.9328,2.9329,2.9325,2.9328,2.9342,2.9344,2.9347,2.9347,2.9325,2.9325,2.9313,2.9313,2.9313]}]]